Regional Weather Roundup
Issued by NWS

Home | Current Version | Previous Version | Text Only | Print | Product List | Glossary On
Versions: 1 2 3 4 5 6 7 8 9 10 11 12 13 14 15 16 17 18 19 20 21 22 23 24 25 26 27 28 29 30 31 32 33 34 35 36 37 38 39 40 41 42 43 44 45 46 47 48 49 50
000
ASUS43 KDTX 222310
RWRMI
MICHIGAN HOURLY REGIONAL WEATHER ROUNDUP
NATIONAL WEATHER SERVICE DETROIT/PONTIAC MI
600 PM EST MON DEC 22 2014

NOTE: "FAIR" INDICATES FEW OR NO CLOUDS BELOW 12,000 FEET WITH NO
SIGNIFICANT WEATHER AND/OR OBSTRUCTION TO VISIBILITY.

MIZ047>049-052>055-059>063-066>070-074>076-081>083-230000-
SOUTHEAST LOWER MICHIGAN

CITY           SKY/WX    TMP DP  RH WIND       PRES   REMARKS
ADRIAN         CLOUDY    34  30  85 E12       29.90F
ALMA           CLOUDY    35  30  82 E6        29.91S
ANN ARBOR      CLOUDY    36  30  79 E8        29.92S
BAD AXE        CLOUDY    32  30  92 SE5       29.98R
DETROIT CITY   MOCLDY    36  29  75 E9        29.95F
DETROIT        CLOUDY    35  30  82 E8        29.94F
FLINT          MOCLDY    37  28  70 E12       29.93S
GROSSE ILE     MOCLDY    36  30  80 E6        29.92F
HILLSDALE      CLOUDY    35  33  92 E13       29.85F
HOWELL         CLOUDY    35  29  80 E8        29.90S

CITY           SKY/WX    TMP DP  RH WIND       PRES   REMARKS
JACKSON        LGT RAIN  35  30  82 E10       29.88S
LAMBERTVILLE   CLOUDY    36  32  87 E9        29.91F
LANSING        CLOUDY    37  29  72 E9        29.89F
LAPEER         NOT AVBL
MASON          LGT RAIN  36  29  77 SE9       29.89S
MONROE         CLOUDY    36  30  80 E9        29.91S
MT. CLEMENS    MOCLDY    34  33  99 E9        29.94F
PONTIAC        MOCLDY    34  29  82 E10       29.92S
PORT HOPE        N/A     34  28  79 E17       29.96F
PORT HURON     PTCLDY    34  30  86 E8        29.97F
TRI CITIES     MOCLDY    36  28  73 E10       29.94F
YPSILANTI      CLOUDY    39  29  67 E10       29.93F
$$
MIZ043>046-050>051-056>058-064>065-071>073-077>080-230000-
SOUTHWEST LOWER MICHIGAN

CITY           SKY/WX    TMP DP  RH WIND       PRES   REMARKS
BATTLE CREEK   CLOUDY    37  31  78 E10       29.84S
BENTON HARBOR  LGT RAIN  36  35  96 E12G22    29.77F FOG
BIG RAPIDS     FLURRIES  34  29  84 E10       29.87S
COLDWATER      CLOUDY    35  32  87 MISG      29.83F
HOLLAND        LGT RAIN  37  33  85 E15       29.81F
GRAND RAPIDS   LGT RAIN  35  31  85 E14       29.84F FOG
KALAMAZOO      CLOUDY    37  32  82 E10G17    29.82S
MARSHALL       LGT RAIN  34  32  92 E9        29.84F
MUSKEGON       LGT RAIN  36  32  85 E13G21    29.82F FOG
$$
MIZ016>042-230000-
NORTHERN LOWER MICHIGAN

CITY           SKY/WX    TMP DP  RH WIND       PRES   REMARKS
ALPENA         CLOUDY    32  28  85 SE6       30.00S
BEAVER ISLAND  MOCLDY    34  28  77 E9        29.93S
BELLAIRE       CLOUDY    35  26  69 E5        29.92S
CADILLAC       CLOUDY    31  26  81 E14       29.87R
CHARLEVOIX     CLOUDY    34  27  76 E12       29.95S
FRANKFORT      CLOUDY    35  27  70 E8        29.86S
GAYLORD        CLOUDY    29  24  82 E6        29.92S
GRAYLING       CLOUDY    31  26  81 E10       29.93F
HARBOR SPRINGS MOCLDY    32  26  79 E10       29.95S
HOUGHTON LAKE  CLOUDY    30  24  78 E9        29.92F
MANISTEE       CLOUDY    36  25  64 E13       29.85F
OSCODA         CLOUDY    33  28  82 E7        29.98F
PELLSTON       CLOUDY    32  26  78 E10       29.96S
TRAVERSE CITY  CLOUDY    35  26  69 E8        29.89F
$$
MIZ007>008-015-230000-
EASTERN UPPER MICHIGAN

CITY           SKY/WX    TMP DP  RH WIND       PRES   REMARKS
KINROSS        CLOUDY    34  30  86 E14       29.99R
MACKINAC ISLAN CLOUDY    33  28  79 SE9G21    29.97S
NEWBERRY       PTCLDY    30  28  93 E12       29.94F
S. S. MARIE    CLOUDY    33  27  78 E8        29.99S
$$
MIZ004>006-011>014-085-230000-
CENTRAL UPPER MICHIGAN

CITY           SKY/WX    TMP DP  RH WIND       PRES   REMARKS
MANISTIQUE     CLOUDY    33  30  87 E10       29.92S
ESCANABA       CLOUDY    36  28  75 E9        29.87S
MENOMINEE      CLOUDY    36  28  75 SE7       29.83S
SAWYER-GWINN   CLOUDY    32  30  93 SE10      29.85F FOG
$$
MIZ001>003-009>011-084-230000-
WESTERN UPPER MICHIGAN

CITY           SKY/WX    TMP DP  RH WIND       PRES   REMARKS
IRON MOUNTAIN  CLOUDY    33  29  85 E8        29.82R
HOUGHTON       CLOUDY    35  32  88 E9        29.81R
COPPER HARBOR    N/A     36  32  85 SW12G21   29.85R
IRONWOOD       CLOUDY    36  32  87 E8        29.72R
$$

ABBREVIATIONS USED IN REMARKS
   TC - TEMPERATURE IN CELSIUS
  WCI - WIND CHILL INDEX
   HX - HEAT INDEX
  VSB - VISIBILITY




USA.gov is the U.S. government's official web portal to all federal, state and local government web resources and services.